Weather in Pokrovskoye

Russia / Sverdlovsk Oblast     57°21′24″N   61°41′33″E
temp.,
°C
wind,
m/s
gust,
m/s
humid.,
%
clouds,
%
prec.,
mm/h
press.,
hPa
HPBL,
m
31 july, sat
sat3123:00+15wsw3109821 1.3 1002277
02:00+15w3109823 0.0 1003337
05:00+14nw2699100 0.0 1005336
08:00+15n1293100 0.0 1007233
11:00+17ssw1287100 0.0 1008400
14:00+22sw1364100 0.1 10081059
17:00+21ese3475100 0.5 1007220
20:00+17nw2399100 2.1 100895
1 august, sun
sun123:00+16sse3119948 2.5 1007388
02:00+16s3109953 0.0 1005305
05:00+16sw3998100 0.9 1004249
08:00+19w4119345 0.6 1005510
11:00+20w51082100 0.7 1006883
14:00+26wnw594717 0.0 10062055
17:00+23w49562 0.0 1007718
20:00+20w497120 0.1 1008430
2 august, mon
mon223:00+16wsw310920 0.1 1009205
02:00+14wsw389322 0.0 1010155
05:00+13w3119313 0.0 1011263
08:00+18wnw4107342 0.0 1012514
11:00+22wnw6105072 0.0 10121445
14:00+25nw584155 0.0 10131888
17:00+26nw48436 0.0 10122202
20:00+21w227027 0.0 101329
3 august, tue
tue323:00+19wsw267888 0.0 1013121
02:00+17wsw3987100 0.3 1013199
05:00+16wsw389388 0.4 1013165
08:00+18w299321 0.6 1013277
11:00+25wnw365732 0.6 10131031
14:00+28nw4746100 0.0 10121887
17:00+28nw3647100 0.0 10121686
20:00+24ene117393 0.0 101211
4 august, wed
wed423:00+19se118580 0.3 101311
02:00+18sse22925 0.8 101317
05:00+17s25935 0.8 101373
08:00+21s24827 0.0 1013149
11:00+28s23475 0.0 1013675
14:00+32sse22360 0.0 10131537
17:00+32sse22365 0.0 10121718
20:00+25ese22640 0.0 101238